Find Kineis-1E

NORAD ID: 60083 Int'l Des: 2024-114 Owner: KINEIS Country: F operational
LEOCIRCULARRETROGRADESSO

現在のビュー

3D地球を読み込み中...

About Kineis-1E

Kineis-1E (NORAD 60083) is a satellite launched Jun 20, 2024 by KINEIS of F. It operates in LEO, CIRCULAR, RETROGRADE, SSO orbit with a mass of 28.00 kg.

次回通過

Passes for default location (London). Set your location on the main map for personalized predictions.

高度履歴

Loading altitude history...

軌道要素

1 60083U 24114E 26175.33480656 .00000789 00000-0 10948-3 0 9994
2 60083 97.8943 198.6378 0002989 154.7673 205.3686 14.80652805108448
Epoch: Jun 24, 2026 • Age: 14 hours

現在のステータス

高度 643.2 km
速度 7.53 km/s
衛星直下点 -36.59°S, 44.97°W
打ち上げ日 Jun 20, 2024
運用期間 2 years
タイプ other

技術仕様

分類 Payload
質量 28.00 kg
乾燥質量 28.00 kg
総質量 28.00 kg
長さ 0.40 m
直径 0.20 m
スパン 1.60 m
形状 Box+ 2 pan + ant
製造者 KINEIS
バスタイプ Cubesat 16U
フェーズステータス In Orbit
所有者/国 KINEIS/F

Most Searched